Weather History for Pensacola NAS, FL

Change the Weather History Date:

Tuesday, April 2, 2013

  Actual Average Record
Temperature  
Mean Temperature 60 °F -  
Max Temperature 75 °F 71 °F 80 °F (2012)
Min Temperature 46 °F 54 °F 45 °F (2003)
Degree Days  
Heating Degree Days 6    
Growing Degree Days 10 (Base 50)    
Moisture  
Dew Point 51 °F    
Average Humidity 80    
Maximum Humidity 100    
Minimum Humidity 35    
Precipitation  
Precipitation 0.00 in - - ()
Sea Level Pressure  
Sea Level Pressure 30.07 in    
Wind  
Wind Speed 2 mph (ESE)    
Max Wind Speed 12 mph    
Max Gust Speed -    
Visibility 7 miles    
Events Fog , Rain    
Averages and records for this station are not official NWS values.
T = Trace of Precipitation, MM = Missing Value Source: NWS Daily Summary

Daily Weather History Graph

Daily Weather History Graph

Search for Another Location

Airport:

Trip Planner

Search our weather history database for the weather conditions in past years. The results will help you decide how hot, cold, wet, or windy it might be!

Date:

Astronomy

Apr. 02, 2013 Rise Set
Actual Time 6:36 AM CDT 7:08 PM CDT
Civil Twilight 6:12 AM CDT 7:33 PM CDT
Nautical Twilight 5:44 AM CDT 8:01 PM CDT
Astronomical Twilight 5:15 AM CDT 8:30 PM CDT
Moon 12:56 AM CDT (4/2) 11:44 AM CDT (4/2)
Length of Visible Light 13h 20m
Length of Day
12h 32m
Waning Gibbous, 55% of the Moon is Illuminated
Apr 2
Waning Gibbous
Apr 2
Last Quarter
Apr 10
New
Apr 18
First Quarter
Apr 25
Full

Hourly Weather History & Observations

Time (CDT) Temp. Dew Point Humidity Pressure Visibility Wind Dir Wind Speed Gust Speed Precip Events Conditions
12:56 AM 51.1 °F 50.0 °F 96% 30.06 in 10.0 mi Calm Calm - N/A   Clear
1:56 AM 48.9 °F 48.0 °F 97% 30.06 in 8.0 mi Calm Calm - 0.00 in   Clear
2:48 AM 48.2 °F 46.4 °F 93% 30.05 in 1.2 mi Calm Calm - 0.00 in Rain Light Rain
2:50 AM 48.2 °F 46.4 °F 93% 30.05 in 0.8 mi Calm Calm - 0.00 in Rain Light Rain
2:56 AM 48.0 °F 48.0 °F 100% 30.05 in 0.8 mi Calm Calm - 0.00 in   Mist
3:07 AM 48.2 °F 48.2 °F 100% 30.05 in 1.5 mi Calm Calm - N/A   Partly Cloudy
3:09 AM 50.0 °F 48.2 °F 94% 30.05 in 3.0 mi Calm Calm - N/A   Partly Cloudy
3:56 AM 51.1 °F 51.1 °F 100% 30.06 in 9.0 mi NNW 4.6 mph - 0.00 in Rain Light Rain
4:24 AM 50.0 °F 50.0 °F 100% 30.05 in 1.8 mi Calm Calm - 0.00 in   Clear
4:34 AM 51.8 °F 50.0 °F 94% 30.05 in 0.8 mi Calm Calm - 0.00 in   Clear
4:40 AM 51.8 °F 51.8 °F 100% 30.05 in 2.0 mi NNW 3.5 mph - 0.00 in   Clear
4:47 AM 48.2 °F 48.2 °F 100% 30.06 in 6.0 mi NW 3.5 mph - 0.00 in   Clear
4:56 AM 48.9 °F 48.0 °F 97% 30.06 in 4.0 mi Calm Calm - 0.00 in   Clear
4:59 AM 48.2 °F 46.4 °F 93% 30.05 in 1.8 mi Calm Calm - N/A   Clear
5:19 AM 48.2 °F 48.2 °F 100% 30.06 in 0.5 mi Calm Calm - N/A Fog Fog
5:28 AM 48.2 °F 48.2 °F 100% 30.06 in 2.0 mi NNW 3.5 mph - 0.00 in Rain Light Rain
5:36 AM 48.2 °F 48.2 °F 100% 30.06 in 10.0 mi Calm Calm - 0.00 in Rain Light Rain
5:56 AM 46.9 °F 46.9 °F 100% 30.07 in 7.0 mi Calm Calm - N/A   Clear
6:56 AM 46.0 °F 46.0 °F 100% 30.08 in 7.0 mi Calm Calm - N/A Fog Shallow Fog
7:56 AM 59.0 °F 54.0 °F 83% 30.10 in 10.0 mi NNE 3.5 mph - N/A   Mostly Cloudy
8:56 AM 66.9 °F 48.9 °F 52% 30.12 in 10.0 mi ENE 11.5 mph - N/A   Mostly Cloudy
9:56 AM 69.1 °F 50.0 °F 51% 30.14 in 10.0 mi ENE 6.9 mph - N/A   Mostly Cloudy
10:56 AM 73.9 °F 45.0 °F 35% 30.14 in 10.0 mi ESE 10.4 mph - N/A   Mostly Cloudy
11:56 AM 73.0 °F 50.0 °F 44% 30.13 in 10.0 mi SE 11.5 mph - N/A   Mostly Cloudy
12:56 PM 72.0 °F 51.1 °F 48% 30.12 in 10.0 mi SE 10.4 mph - N/A   Mostly Cloudy
1:56 PM 73.9 °F 50.0 °F 43% 30.09 in 10.0 mi SE 9.2 mph - N/A   Mostly Cloudy
2:56 PM 73.9 °F 53.1 °F 48% 30.07 in 10.0 mi SSE 10.4 mph - N/A   Mostly Cloudy
3:56 PM 73.0 °F 52.0 °F 48% 30.05 in 10.0 mi SE 6.9 mph - N/A   Mostly Cloudy
4:56 PM 72.0 °F 46.9 °F 41% 30.04 in 10.0 mi SE 6.9 mph - N/A   Mostly Cloudy
5:56 PM 70.0 °F 55.0 °F 59% 30.04 in 10.0 mi SE 4.6 mph - N/A   Mostly Cloudy
6:56 PM 66.9 °F 57.0 °F 70% 30.04 in 10.0 mi SSE 5.8 mph - N/A   Mostly Cloudy
7:56 PM 66.0 °F 57.9 °F 75% 30.04 in 10.0 mi SE 4.6 mph - N/A   Mostly Cloudy
8:56 PM 66.9 °F 60.1 °F 79% 30.05 in 10.0 mi SSE 4.6 mph - N/A   Mostly Cloudy
9:56 PM 66.0 °F 59.0 °F 78% 30.06 in 10.0 mi SE 4.6 mph - N/A   Clear
10:56 PM 64.9 °F 61.0 °F 87% 30.04 in 10.0 mi SE 3.5 mph - N/A   Clear
11:56 PM 64.9 °F 62.1 °F 90% 30.03 in 10.0 mi ESE 4.6 mph - N/A   Partly Cloudy